Regional Weather Roundup
Issued by NWS

Home | Current Version | Previous Version | Graphics & Text | Print | Product List | Glossary Off
Versions: 1 2 3 4 5 6 7 8 9 10 11 12 13 14 15 16 17 18 19 20 21 22 23 24 25 26 27 28 29 30 31 32 33 34 35 36 37 38 39 40 41 42 43 44 45 46 47 48 49 50

000
ASUS43 KMKX 201111
RWRWI

WISCONSIN REGIONAL WEATHER ROUNDUP
NATIONAL WEATHER SERVICE MILWAUKEE/SULLIVAN WI
600 AM CDT SUN MAY 20 2018

NOTE: "FAIR" INDICATES FEW OR NO CLOUDS BELOW 12,000 FEET WITH NO
SIGNIFICANT WEATHER AND/OR OBSTRUCTIONS TO VISIBILITY.

WIZ001-002-006>008-014>016-023>028-201200-
NORTHWEST WISCONSIN

CITY           SKY/WX    TMP DP  RH WIND       PRES   REMARKS
SUPERIOR ARPT  FAIR      29  29 100 S5        30.27R FOG     WCI  24
ASHLAND        FAIR      30  30 100 CALM      30.27R
HAYWARD        FAIR      30  29  96 CALM      30.24S
SIREN          FAIR      32  32  98 NE3       30.25R
CUMBERLAND     FAIR      37  32  81 NE7       30.22S WCI  32
RICE LAKE      FAIR      37  35  90 NE5       30.23S WCI  34
CHETEK         FAIR      40  36  86 NE7       30.22S WCI  35
LADYSMITH      FAIR      37  34  88 NE6       30.23S WCI  33
EAU CLAIRE     CLOUDY    44  37  76 NE8       30.18R
MENOMONIE      FAIR      44  36  72 N10       30.20S
NEW RICHMOND   FAIR      41  33  75 NE8       30.21R
OSCEOLA        FAIR      39  36  87 NE3       30.25S
$$

WIZ003>005-009-010-017-018-201200-
NORTH CENTRAL WISCONSIN

CITY           SKY/WX    TMP DP  RH WIND       PRES   REMARKS
MANITOWISH WTR FAIR      36  36  99 N3        30.22R
ARBOR VITAE    FAIR      37  34  91 CALM      30.22R
WOODRUFF       FAIR      37  34  91 CALM      30.22R
RHINELANDER    FAIR      39  34  82 NE5       30.21R
EAGLE RIVER    FAIR      35  33  91 CALM      30.21R
LAND O LAKES   FAIR      36  34  92 N7        30.23R WCI  30
PHILLIPS       FAIR      33  33 100 NE6       30.21S WCI  27
TOMAHAWK       FAIR      38  34  84 CALM      30.21S
MEDFORD        FAIR      37  35  92 NE6       30.18S WCI  33
MERRILL        FAIR      35  35  99 CALM      30.21R
$$

WIZ029-030-035-036-043>047-201200-
CENTRAL WISCONSIN

CITY           SKY/WX    TMP DP  RH WIND       PRES   REMARKS
WAUSAU         MOCLDY    42  36  79 N6        30.18R
MOSINEE        MOCLDY    43  37  81 NE10      30.19R
MARSHFIELD     CLOUDY    45  38  76 NE10      30.16R
STEVENS POINT  NOT AVBL
WAUPACA        CLOUDY    48  40  72 NE6       30.18R
WAUTOMA        LGT RAIN  46  43  87 NE5         N/A
WISC RAPIDS    CLOUDY    48  38  68 NE9       30.18R
CAMP DOUGLAS   LGT RAIN  46  46 100 E6        30.14S
$$

WIZ011>013-019>022-031-037>040-048>050-201200-
NORTHEAST WISCONSIN

CITY           SKY/WX    TMP DP  RH WIND       PRES   REMARKS
ANTIGO         FAIR      34  33  96 N6        30.19S WCI  29
SHAWANO        CLOUDY    45  38  75 N13       30.19S
OCONTO         FAIR      42  36  79 N6        30.20R
STURGEON BAY   MOCLDY    42  37  82 N14       30.20R
GREEN BAY      CLOUDY    45  38  76 N10       30.18R
MANITOWOC      CLOUDY    44  39  82 N5        30.18R
APPLETON       CLOUDY    45  36  70 NE14      30.15F
CLINTONVILLE   CLOUDY    45  36  70 N8        30.19R
OSHKOSH        LGT RAIN  47  43  86 N13       30.15S
$$

WIZ032>034-041-042-053>061-201200-
SOUTHWEST WISCONSIN

CITY           SKY/WX    TMP DP  RH WIND       PRES   REMARKS
LA CROSSE      LGT RAIN  50  32  50 N6        30.15R
SPARTA         DRIZZLE   46  44  95 NE7       30.15R
VIROQUA        CLOUDY    48  48 100 NE9       30.12R
BOSCOBEL       LGT RAIN  55  50  83 E7        30.10R
PRAIRIE DU CHI CLOUDY    54  48  81 N6        30.10R
PLATTEVILLE    CLOUDY    52  52  99 E18G25    30.10R
$$

WIZ056-057-062-063-064-067-068-201200-
SOUTH CENTRAL WISCONSIN

CITY           SKY/WX    TMP DP  RH WIND       PRES   REMARKS
REEDSBURG      CLOUDY    47  45  91 NE12      30.13S
BARABOO/DELLS  CLOUDY    47  43  87 NE13      30.14R
LONE ROCK      CLOUDY    53  50  89 NE13      30.12R
MINERAL POINT  LGT RAIN  52  52 100 E13       30.10R
MADISON        TSTM      50  47  89 E9        30.12R
MIDDLETON      CLOUDY    51  48  90 E8        30.13R
WATERTOWN      CLOUDY    47  47 100 NE7       30.12R
MONROE         CLOUDY    46  45  93 E12       30.12R
JANESVILLE     CLOUDY    50  43  76 NE14      30.12R
$$

WIZ051-052-058>065-066-070>072-201200-
SOUTHEAST WISCONSIN

CITY           SKY/WX    TMP DP  RH WIND       PRES   REMARKS
MILWAUKEE      LGT RAIN  43  40  89 N13G26    30.15R
WAUKESHA       CLOUDY    43  41  93 NE12      30.15R
MILWAUKEE/TIMM CLOUDY    43  37  81 NE10      30.16R
RACINE         LGT RAIN  43  40  89 N18G30    30.15R
BURLINGTON     CLOUDY    45  40  82 NE10G16   30.14R
KENOSHA        CLOUDY    44  39  82 NE14G24   30.13R
FOND DU LAC    LGT RAIN  47  43  86 NE15      30.15S
SHEBOYGAN      LGT RAIN  45  42  89 NE10      30.15S
WEST BEND      LGT RAIN  45  43  93 N3        30.15R
JUNEAU         CLOUDY    46  43  89 N8        30.14S
$$

LSZ147-162-201200-
LAKE SUPERIOR

STATION/POSITION TIME  TEMP    WIND        PRES    WAVE
                       AIR SEA DIR/SP/G            HT/PER
                 (UTC) (F)     (DEG/KT/KT) (MB)    (FT/S)
W MID LAKE BUOY  1050   36 36  260/  4/  6 1025.1R   1/ 5
DEVILS ISLAND    1100   40     280/  4/  5 1025.7R
SAXON HARBOR     1040   31     200/  4/  5 1024.4R
$$

LMZ867-665-643>646-201200-
LAKE MICHIGAN

STATION/POSITION TIME  TEMP    WIND        PRES    WAVE
                       AIR SEA DIR/SP/G            HT/PER
                 (UTC) (F)     (DEG/KT/KT) (MB)    (FT/S)
NORTHPORT PIER   1040   42                 1021.7R
KEWAUNEE LAKESHO 1042   42     350/  6/ 11 1021.0R
SHEBOYGAN LAKESH 1100   42      30/ 18/ 19 1021.7R
PORT WASHINGTON  1030   45      20/ 11/ 14 1021.7R
MILWAUKEE LAKESH 1050   42      20/ 18/ 20   N/A
KENOSHA   LAKESH 1100   44                 1020.3
$$

TC  - TEMPERATURE IN CELSIUS
VSB - VISIBILITY IN STATUTE MILES
WCI - WIND CHILL INDEX
HX  - HEAT INDEX




USA.gov is the U.S. government's official web portal to all federal, state and local government web resources and services.